[[{"header":{"parameterUnit":"m.s-1","parameterCategory":1,"la1":30.2992,"la2":30.254,"lo1":-89.0895,"lo2":-89.0443,"dy":0.0025,"dx":0.0025,"nx":19,"ny":19,"refTime":"2026-04-19T09:00:00:Z","depth":0,"parameterNumber":2,"parameterNumberName":"U-component_of_WINDS"},"data":[0,0,0,-6.1783,-6.1785,-6.1864,-6.1864,-6.2003,-6.2004,0,0,0,0,0,0,0,0,0,0,0,-6.1781,-6.1783,-6.1782,-6.1785,-6.1864,-6.1864,-6.2002,-6.2004,0,0,0,0,0,0,0,0,0,0,0,-6.1781,-6.1783,-6.1785,-6.1785,-6.1864,-6.1864,-6.2002,-6.1929,0,0,0,0,0,0,0,0,0,0,-6.1846,-6.1866,-6.1782,-6.1785,-6.1786,-6.1864,-6.1864,-6.1925,-6.1934,-6.1983,0,-6.2032,0,-6.2021,-6.2016,-6.2016,0,0,0,-6.1769,-6.1859,-6.1861,-6.1785,-6.1787,-6.1864,-6.1823,-6.1929,-6.1939,-6.1995,-6.2034,-6.2038,-6.2023,-6.2017,-6.2018,-6.2357,-6.236,0,0,-6.1764,-6.1808,-6.1854,-6.1868,-6.1857,-6.1821,-6.1826,-6.1935,-6.198,-6.2034,-6.204,-6.2025,-6.2018,-6.2019,-6.2355,-6.2358,0,0,0,-6.1763,-6.1805,-6.1803,-6.1864,-6.1875,-6.1824,-6.183,-6.1975,-6.1971,-6.2042,-6.2027,-6.2019,-6.2021,-6.2352,-6.2356,-6.2516,0,0,0,-6.1759,-6.1804,-6.1802,-6.1829,-6.1874,-6.1926,-6.1869,-6.1963,-6.1974,-6.2026,-6.2019,-6.2023,-6.235,-6.2354,-6.2506,-6.2585,0,0,0,-6.1769,-6.1805,-6.1824,-6.1831,-6.1867,-6.1923,-6.1924,-6.1965,-6.1966,-6.2017,-6.2023,-6.2348,-6.2353,-6.2497,-6.257,-6.2689,0,0,0,-6.1791,-6.1964,-6.1827,-6.2015,-6.1867,-6.2021,-6.1923,-6.2036,-6.2098,-6.202,-6.235,-6.2356,-6.2494,-6.2561,-6.268,-6.2799,-6.2852,0,0,-6.2033,-6.1995,-6.2101,-6.1981,-6.2172,-6.2005,-6.2219,-6.2235,-6.2199,-6.2307,-6.2315,-6.251,-6.2569,-6.2687,-6.313,-6.3172,0,0,0,-6.2193,-6.2271,-6.2312,-6.2373,-6.2389,-6.2411,-6.2389,-6.2395,-6.2484,-6.2263,-6.2582,-6.2616,-6.2684,-6.2739,-6.2775,-6.2831,-6.2382,-6.2382,-6.2381,-6.2599,-6.2545,-6.272,-6.2677,-6.2738,-6.2714,-6.276,-6.2764,-6.2691,-6.2768,-6.28,-6.3075,-6.3141,-6.3167,-6.3227,-6.2856,-6.2857,-6.2857,-6.2858,-6.2951,-6.3054,-6.2954,-6.3088,-6.3031,-6.3142,-6.3128,-6.3073,-6.317,-6.3045,-6.3102,-6.2973,-6.3216,-6.3265,-6.2869,-6.2867,-6.2866,-6.2865,-6.2864,-6.3213,-6.3253,-6.3257,-6.3343,-6.3415,-6.3364,-6.3463,-6.3406,-6.3354,-6.341,-6.344,-6.3437,-6.343,-6.3428,-6.3429,-6.343,-6.3431,-6.3431,-6.3432,-6.3483,-6.3483,-6.3573,-6.3607,-6.364,-6.3677,-6.3657,-6.3689,-6.371,-6.3661,-6.3661,-6.3583,-6.3248,-6.3167,-6.3447,-6.3444,-6.3442,-6.3441,-6.344,-6.3864,-6.3769,-6.3908,-6.3942,-6.3978,-6.4055,-6.3982,-6.4052,-6.407,-6.4121,-6.4031,-6.3792,-6.3748,-6.3719,-6.3651,-6.404,-6.404,-6.404,-6.404,-6.4087,-6.4059,-6.4189,-6.4248,-6.4298,-6.4247,-6.4408,-6.4396,-6.4367,-6.4376,-6.4311,-6.4216,-6.4188,-6.4161,-6.4122,-6.4059,-6.4542,-6.4542,-6.4543,-6.4319,-6.4294,-6.4441,-6.4412,-6.4437,-6.446,-6.4611,-6.4683,-6.4631,-6.4562,-6.4382,-6.4361,-6.4206,-6.4158,-6.4087,-6.4028,-6.3909,0,0]},{"header":{"parameterUnit":"m.s-1","parameterCategory":1,"la1":30.2992,"la2":30.254,"lo1":-89.0895,"lo2":-89.0443,"dy":0.0025,"dx":0.0025,"nx":19,"ny":19,"refTime":"2026-04-19T09:00:00:Z","depth":0,"parameterNumber":3,"parameterNumberName":"V-component_of_WINDS"},"data":[0,0,0,-0.6586,-0.6587,-0.663,-0.663,-0.6689,-0.6689,0,0,0,0,0,0,0,0,0,0,0,-0.6576,-0.6576,-0.6586,-0.6587,-0.663,-0.663,-0.6688,-0.6689,0,0,0,0,0,0,0,0,0,0,0,-0.6575,-0.6576,-0.6576,-0.6588,-0.663,-0.663,-0.6688,-0.6655,0,0,0,0,0,0,0,0,0,0,-0.6613,-0.6605,-0.6576,-0.6576,-0.6588,-0.663,-0.6631,-0.6653,-0.6657,-0.667,0,-0.6683,0,-0.6687,-0.6693,-0.6693,0,0,0,-0.6586,-0.6601,-0.6611,-0.6577,-0.6588,-0.663,-0.6611,-0.6655,-0.6659,-0.6675,-0.6684,-0.6686,-0.6688,-0.6694,-0.6694,-0.6775,-0.6776,0,0,-0.6584,-0.6585,-0.6608,-0.6614,-0.6608,-0.6609,-0.6612,-0.6658,-0.6667,-0.6684,-0.6687,-0.6689,-0.6694,-0.6694,-0.6775,-0.6776,0,0,0,-0.6578,-0.6583,-0.6591,-0.6612,-0.6619,-0.661,-0.6614,-0.6665,-0.6668,-0.6688,-0.6689,-0.6694,-0.6695,-0.6775,-0.6775,-0.6799,0,0,0,-0.6576,-0.6579,-0.659,-0.6591,-0.6618,-0.6643,-0.662,-0.6664,-0.667,-0.6689,-0.6694,-0.6696,-0.6774,-0.6775,-0.6797,-0.681,0,0,0,-0.6572,-0.6579,-0.6586,-0.6591,-0.661,-0.6642,-0.6647,-0.6665,-0.6671,-0.6693,-0.6696,-0.6774,-0.6775,-0.6795,-0.6808,-0.6832,0,0,0,-0.6568,-0.6606,-0.6586,-0.6629,-0.6609,-0.6655,-0.6647,-0.6681,-0.6703,-0.6695,-0.6774,-0.6775,-0.6795,-0.6806,-0.6831,-0.6854,-0.6864,0,0,-0.6617,-0.6612,-0.6637,-0.6621,-0.667,-0.6649,-0.6702,-0.6722,-0.6723,-0.6758,-0.676,-0.6798,-0.6808,-0.6832,-0.6914,-0.6922,0,0,0,-0.6653,-0.6672,-0.6684,-0.6705,-0.672,-0.6735,-0.6746,-0.6753,-0.6782,-0.6741,-0.6812,-0.6818,-0.6833,-0.6844,-0.685,-0.6863,-0.678,-0.678,-0.678,-0.6725,-0.6724,-0.6765,-0.6769,-0.6789,-0.6799,-0.6816,-0.6827,-0.682,-0.6837,-0.6848,-0.6898,-0.6911,-0.6916,-0.6929,-0.6859,-0.6859,-0.6859,-0.6859,-0.6797,-0.6824,-0.6812,-0.6849,-0.6847,-0.6877,-0.6888,-0.6882,-0.691,-0.689,-0.6902,-0.6882,-0.6924,-0.6936,-0.6861,-0.686,-0.686,-0.686,-0.686,-0.6846,-0.6858,-0.6865,-0.6894,-0.6916,-0.6918,-0.6946,-0.6943,-0.694,-0.6952,-0.6964,-0.6964,-0.6964,-0.6958,-0.6958,-0.6958,-0.6958,-0.6958,-0.6958,-0.6894,-0.6901,-0.6925,-0.6942,-0.6955,-0.6971,-0.698,-0.6992,-0.7004,-0.7,-0.7,-0.6992,-0.6928,-0.6913,-0.6961,-0.6961,-0.696,-0.696,-0.696,-0.6971,-0.6953,-0.6989,-0.7001,-0.7022,-0.7044,-0.7039,-0.7063,-0.7073,-0.7086,-0.7074,-0.7027,-0.7022,-0.7017,-0.7005,-0.7074,-0.7074,-0.7074,-0.7074,-0.7013,-0.701,-0.7046,-0.7065,-0.7084,-0.7083,-0.7124,-0.713,-0.7134,-0.714,-0.7129,-0.7111,-0.7106,-0.7105,-0.7097,-0.7086,-0.7174,-0.7174,-0.7174,-0.7061,-0.7059,-0.7095,-0.7098,-0.7113,-0.7126,-0.7164,-0.7187,-0.7187,-0.7178,-0.7144,-0.714,-0.7112,-0.7102,-0.7095,-0.7084,-0.7063,0,0]}]]